Time,TemperatureF,DewpointF,PressureIn,WindDirection,WindDirectionDegrees,WindSpeedMPH,WindSpeedGustMPH,Humidity,HourlyPrecipIn,Conditions,Clouds,dailyrainin,SoftwareType,DateUTC
2013-11-22 00:00:00,41.0,38.0,30.18,NNW,338,2.0,6.0,91,0.00,,-RA,0.00,VWS V14.01,2013-11-22 06:00:00,
2013-11-22 00:02:00,40.1,38.0,30.18,NNE,27,0.0,5.0,92,0.00,,,0.00,weatherlink.com 1.10,2013-11-22 06:02:00,
2013-11-22 00:17:00,40.1,38.0,30.20,NNW,332,7.0,7.0,92,0.00,,,0.00,weatherlink.com 1.10,2013-11-22 06:17:00,
2013-11-22 00:30:00,41.0,38.0,30.20,NNW,338,2.0,9.0,91,0.00,,-RA,0.00,VWS V14.01,2013-11-22 06:30:00,
2013-11-22 00:32:00,40.1,38.0,30.20,North,355,0.0,5.0,92,0.00,,,0.00,weatherlink.com 1.10,2013-11-22 06:32:00,
2013-11-22 00:47:00,39.8,38.0,30.21,NW,324,6.0,9.0,93,0.00,,,0.00,weatherlink.com 1.10,2013-11-22 06:47:00,
2013-11-22 01:00:00,41.0,37.5,30.21,NNW,338,3.0,10.0,92,0.00,,-RA,0.00,VWS V14.01,2013-11-22 07:00:00,
2013-11-22 01:02:00,39.4,38.0,30.21,NE,39,3.0,9.0,93,0.00,,,0.00,weatherlink.com 1.10,2013-11-22 07:02:00,
2013-11-22 01:17:00,39.3,38.0,30.21,NW,326,3.0,8.0,93,0.00,,,0.00,weatherlink.com 1.10,2013-11-22 07:17:00,
2013-11-22 01:30:00,40.0,37.2,30.22,NNW,338,4.0,11.0,91,0.00,,-RA,0.00,VWS V14.01,2013-11-22 07:30:00,
2013-11-22 01:32:00,39.3,37.0,30.22,NE,38,1.0,8.0,92,0.00,,,0.00,weatherlink.com 1.10,2013-11-22 07:32:00,
2013-11-22 01:48:00,39.3,37.0,30.22,NW,326,3.0,6.0,92,0.00,,,0.00,weatherlink.com 1.10,2013-11-22 07:48:00,
2013-11-22 02:00:00,40.0,37.1,30.22,NNW,338,2.0,12.0,91,0.00,,-RA,0.00,VWS V14.01,2013-11-22 08:00:00,
2013-11-22 02:03:00,39.1,37.0,30.22,NE,42,4.0,11.0,92,0.00,,,0.00,weatherlink.com 1.10,2013-11-22 08:03:00,
2013-11-22 02:18:00,38.8,37.0,30.22,NNW,330,4.0,8.0,92,0.00,,,0.00,weatherlink.com 1.10,2013-11-22 08:18:00,
2013-11-22 02:30:00,40.0,36.8,30.23,NNW,338,3.0,12.0,92,0.00,,-RA,0.00,VWS V14.01,2013-11-22 08:30:00,
2013-11-22 02:33:00,38.6,37.0,30.23,WNW,299,1.0,8.0,93,0.00,,,0.00,weatherlink.com 1.10,2013-11-22 08:33:00,
2013-11-22 02:48:00,38.3,37.0,30.23,NNE,19,5.0,9.0,93,0.00,,,0.00,weatherlink.com 1.10,2013-11-22 08:48:00,
2013-11-22 03:00:00,39.0,36.2,30.24,NNW,338,4.0,10.0,91,0.00,,-RA,0.00,VWS V14.01,2013-11-22 09:00:00,
2013-11-22 03:03:00,38.0,36.0,30.24,North,350,4.0,10.0,93,0.00,,,0.00,weatherlink.com 1.10,2013-11-22 09:03:00,
2013-11-22 03:18:00,37.7,36.0,30.26,NNE,26,5.0,10.0,93,0.00,,,0.00,weatherlink.com 1.10,2013-11-22 09:18:00,
2013-11-22 03:30:00,39.0,35.8,30.25,NNW,338,4.0,12.0,92,0.00,,-RA,0.00,VWS V14.01,2013-11-22 09:30:00,
2013-11-22 03:33:00,37.5,36.0,30.25,West,267,10.0,10.0,93,0.00,,,0.00,weatherlink.com 1.10,2013-11-22 09:33:00,
2013-11-22 03:48:00,37.3,36.0,30.25,WNW,291,2.0,10.0,93,0.01,,,0.01,weatherlink.com 1.10,2013-11-22 09:48:00,
2013-11-22 04:00:00,38.0,35.6,30.25,NW,315,4.0,11.0,92,0.01,,-RA,0.01,VWS V14.01,2013-11-22 10:00:00,
2013-11-22 04:03:00,37.2,36.0,30.25,North,355,5.0,11.0,94,0.01,,,0.01,weatherlink.com 1.10,2013-11-22 10:03:00,
2013-11-22 04:18:00,37.1,36.0,30.26,NNE,15,3.0,10.0,94,0.02,,,0.02,weatherlink.com 1.10,2013-11-22 10:18:00,
2013-11-22 04:30:00,38.0,35.0,30.26,NW,315,4.0,13.0,92,0.02,,-RA,0.02,VWS V14.01,2013-11-22 10:30:00,
2013-11-22 04:41:00,36.3,35.0,30.27,WNW,299,7.0,12.0,93,0.01,,,0.02,weatherlink.com 1.10,2013-11-22 10:41:00,
2013-11-22 04:48:00,35.9,34.0,30.26,NW,325,5.0,15.0,93,0.01,,,0.02,weatherlink.com 1.10,2013-11-22 10:48:00,
2013-11-22 05:00:00,37.0,34.0,30.26,NNW,338,6.0,17.0,92,0.02,,-RA,0.02,VWS V14.01,2013-11-22 11:00:00,
2013-11-22 05:03:00,35.5,34.0,30.27,NW,313,9.0,12.0,94,0.01,,,0.02,weatherlink.com 1.10,2013-11-22 11:03:00,
2013-11-22 05:18:00,35.3,34.0,30.27,NW,306,3.0,13.0,93,0.00,,,0.02,weatherlink.com 1.10,2013-11-22 11:18:00,
2013-11-22 05:30:00,36.0,32.9,30.28,NNW,338,5.0,16.0,91,0.01,,-RA,0.02,VWS V14.01,2013-11-22 11:30:00,
2013-11-22 05:33:00,34.7,33.0,30.28,WNW,296,2.0,14.0,93,0.00,,,0.02,weatherlink.com 1.10,2013-11-22 11:33:00,
2013-11-22 05:48:00,34.3,33.0,30.29,NNW,333,7.0,16.0,93,0.00,,,0.02,weatherlink.com 1.10,2013-11-22 11:48:00,
2013-11-22 06:00:00,35.0,31.9,30.30,NNW,338,6.0,16.0,91,0.00,,-RA,0.02,VWS V14.01,2013-11-22 12:00:00,
2013-11-22 06:03:00,33.9,32.0,30.30,WNW,298,4.0,13.0,92,0.00,,,0.02,weatherlink.com 1.10,2013-11-22 12:03:00,
2013-11-22 06:18:00,33.8,32.0,30.31,NNW,327,7.0,12.0,91,0.00,,,0.02,weatherlink.com 1.10,2013-11-22 12:18:00,
2013-11-22 06:30:00,35.0,31.4,30.32,NNW,338,5.0,16.0,90,0.00,,-RA,0.02,VWS V14.01,2013-11-22 12:30:00,
2013-11-22 06:33:00,33.7,31.0,30.32,NNW,344,8.0,16.0,91,0.00,,,0.02,weatherlink.com 1.10,2013-11-22 12:33:00,
2013-11-22 06:48:00,33.5,31.0,30.33,NNE,26,6.0,11.0,90,0.00,,,0.02,weatherlink.com 1.10,2013-11-22 12:48:00,
2013-11-22 07:00:00,34.0,31.0,30.34,NNW,338,5.0,17.0,90,0.00,,-RA,0.02,VWS V14.01,2013-11-22 13:00:00,
2013-11-22 07:03:00,33.3,31.0,30.34,NW,310,1.0,12.0,91,0.00,,,0.02,weatherlink.com 1.10,2013-11-22 13:03:00,
2013-11-22 07:19:00,33.2,31.0,30.35,NW,310,4.0,13.0,91,0.00,,,0.02,weatherlink.com 1.10,2013-11-22 13:19:00,
2013-11-22 07:30:00,34.0,30.6,30.36,NW,315,5.0,16.0,90,0.00,,-RA,0.02,VWS V14.01,2013-11-22 13:30:00,
2013-11-22 07:34:00,32.9,31.0,30.36,North,351,6.0,11.0,91,0.00,,,0.02,weatherlink.com 1.10,2013-11-22 13:34:00,
2013-11-22 07:49:00,32.8,30.0,30.37,WNW,300,3.0,12.0,90,0.00,,,0.02,weatherlink.com 1.10,2013-11-22 13:49:00,
2013-11-22 08:00:00,34.0,30.1,30.38,NNW,338,5.0,13.0,89,0.00,,-RA,0.02,VWS V14.01,2013-11-22 14:00:00,
2013-11-22 08:04:00,32.7,30.0,30.38,NNW,345,3.0,13.0,90,0.00,,,0.02,weatherlink.com 1.10,2013-11-22 14:04:00,
2013-11-22 08:19:00,32.6,30.0,30.38,North,355,6.0,13.0,90,0.00,,,0.02,weatherlink.com 1.10,2013-11-22 14:19:00,
2013-11-22 08:30:00,34.0,29.9,30.38,NNW,338,5.0,16.0,89,0.00,,-RA,0.02,VWS V14.01,2013-11-22 14:30:00,
2013-11-22 08:34:00,32.5,30.0,30.39,NNW,342,3.0,14.0,89,0.00,,,0.02,weatherlink.com 1.10,2013-11-22 14:34:00,
2013-11-22 08:49:00,32.3,29.0,30.39,NNE,32,5.0,21.0,88,0.00,,,0.02,weatherlink.com 1.10,2013-11-22 14:49:00,
2013-11-22 09:00:00,33.0,29.1,30.40,NNW,338,6.0,22.0,87,0.00,,-RA,0.02,VWS V14.01,2013-11-22 15:00:00,
2013-11-22 09:04:00,32.4,29.0,30.40,NNW,327,12.0,15.0,88,0.00,,,0.02,weatherlink.com 1.10,2013-11-22 15:04:00,
2013-11-22 09:19:00,32.2,29.0,30.41,NNE,22,5.0,12.0,88,0.00,,,0.02,weatherlink.com 1.10,2013-11-22 15:19:00,
2013-11-22 09:30:00,34.0,29.5,30.41,NNW,338,5.0,13.0,88,0.00,,-RA,0.02,VWS V14.01,2013-11-22 15:30:00,
2013-11-22 09:34:00,32.3,29.0,30.41,NE,39,6.0,16.0,88,0.00,,,0.02,weatherlink.com 1.10,2013-11-22 15:34:00,
2013-11-22 09:49:00,32.4,29.0,30.42,NE,34,4.0,12.0,87,0.00,,,0.02,weatherlink.com 1.10,2013-11-22 15:49:00,
2013-11-22 10:00:00,34.0,29.1,30.43,NNW,338,6.0,16.0,86,0.00,,-RA,0.02,VWS V14.01,2013-11-22 16:00:00,
2013-11-22 10:04:00,32.5,29.0,30.43,NNW,340,7.0,10.0,87,0.00,,,0.02,weatherlink.com 1.10,2013-11-22 16:04:00,
2013-11-22 10:19:00,32.6,29.0,30.43,West,268,1.0,11.0,87,0.00,,,0.02,weatherlink.com 1.10,2013-11-22 16:19:00,
2013-11-22 10:34:00,32.5,29.0,30.42,NW,319,3.0,14.0,85,0.00,,,0.02,weatherlink.com 1.10,2013-11-22 16:34:00,
2013-11-22 10:49:00,32.5,29.0,30.42,NE,38,11.0,13.0,85,0.00,,,0.02,weatherlink.com 1.10,2013-11-22 16:49:00,
2013-11-22 11:00:00,35.0,28.8,30.41,NNW,338,6.0,15.0,82,0.00,,-RA,0.02,VWS V14.01,2013-11-22 17:00:00,
2013-11-22 11:04:00,33.9,29.0,30.41,WNW,299,10.0,13.0,82,0.00,,,0.02,weatherlink.com 1.10,2013-11-22 17:04:00,
2013-11-22 11:19:00,33.8,28.0,30.40,NW,306,4.0,11.0,80,0.00,,,0.02,weatherlink.com 1.10,2013-11-22 17:19:00,
2013-11-22 11:30:00,35.0,29.1,30.40,NNW,338,5.0,13.0,80,0.00,,-RA,0.02,VWS V14.01,2013-11-22 17:30:00,
2013-11-22 11:34:00,34.6,29.0,30.40,NE,46,9.0,10.0,80,0.00,,,0.02,weatherlink.com 1.10,2013-11-22 17:34:00,
2013-11-22 11:49:00,35.3,29.0,30.39,NNW,344,3.0,10.0,79,0.00,,,0.02,weatherlink.com 1.10,2013-11-22 17:49:00,
2013-11-22 12:00:00,36.0,29.3,30.39,NNW,338,5.0,12.0,79,0.00,,-RA,0.02,VWS V14.01,2013-11-22 18:00:00,
2013-11-22 12:04:00,35.4,29.0,30.39,NE,36,7.0,11.0,77,0.00,,,0.02,weatherlink.com 1.10,2013-11-22 18:04:00,
2013-11-22 12:19:00,35.8,29.0,30.39,NNE,27,4.0,14.0,76,0.00,,,0.02,weatherlink.com 1.10,2013-11-22 18:19:00,
2013-11-22 12:30:00,37.0,29.5,30.41,NNW,338,5.0,15.0,78,0.00,,-RA,0.02,VWS V14.01,2013-11-22 18:30:00,
2013-11-22 12:34:00,36.1,30.0,30.41,ESE,111,2.0,11.0,77,0.00,,,0.02,weatherlink.com 1.10,2013-11-22 18:34:00,
2013-11-22 12:49:00,35.7,29.0,30.41,NW,309,5.0,12.0,76,0.00,,,0.02,weatherlink.com 1.10,2013-11-22 18:49:00,
2013-11-22 13:00:00,37.0,28.6,30.42,NNW,338,6.0,15.0,76,0.00,,-RA,0.02,VWS V14.01,2013-11-22 19:00:00,
2013-11-22 13:04:00,35.5,28.0,30.42,NNW,346,7.0,14.0,75,0.00,,,0.02,weatherlink.com 1.10,2013-11-22 19:04:00,
2013-11-22 13:19:00,36.1,29.0,30.42,NNE,15,2.0,10.0,75,0.00,,,0.02,weatherlink.com 1.10,2013-11-22 19:19:00,
2013-11-22 13:30:00,38.0,28.8,30.42,NNW,338,5.0,14.0,74,0.00,,-RA,0.02,VWS V14.01,2013-11-22 19:30:00,
2013-11-22 13:34:00,36.5,28.0,30.42,North,11,8.0,13.0,72,0.00,,,0.02,weatherlink.com 1.10,2013-11-22 19:34:00,
2013-11-22 13:49:00,36.4,28.0,30.42,North,5,2.0,14.0,71,0.00,,,0.02,weatherlink.com 1.10,2013-11-22 19:49:00,
2013-11-22 14:00:00,37.0,28.2,30.43,NW,315,5.0,15.0,72,0.00,,-RA,0.02,VWS V14.01,2013-11-22 20:00:00,
2013-11-22 14:04:00,36.8,27.0,30.43,NNW,348,4.0,10.0,69,0.00,,,0.02,weatherlink.com 1.10,2013-11-22 20:04:00,
2013-11-22 14:19:00,35.9,28.0,30.43,NNW,340,1.0,10.0,72,0.00,,,0.02,weatherlink.com 1.10,2013-11-22 20:19:00,
2013-11-22 14:30:00,36.0,27.3,30.44,NNW,338,4.0,12.0,73,0.00,,-RA,0.02,VWS V14.01,2013-11-22 20:30:00,
2013-11-22 14:34:00,35.3,27.0,30.44,NW,321,4.0,10.0,73,0.00,,,0.02,weatherlink.com 1.10,2013-11-22 20:34:00,
2013-11-22 14:49:00,35.6,28.0,30.45,NW,309,7.0,9.0,73,0.00,,,0.02,weatherlink.com 1.10,2013-11-22 20:49:00,
2013-11-22 15:00:00,36.0,26.8,30.46,NW,315,4.0,11.0,72,0.00,,-RA,0.02,VWS V14.01,2013-11-22 21:00:00,
2013-11-22 15:04:00,35.1,27.0,30.46,NW,317,2.0,10.0,72,0.00,,,0.02,weatherlink.com 1.10,2013-11-22 21:04:00,
2013-11-22 15:19:00,35.2,26.0,30.46,NW,325,3.0,10.0,69,0.00,,,0.02,weatherlink.com 1.10,2013-11-22 21:19:00,
2013-11-22 15:30:00,36.0,26.1,30.46,NW,315,3.0,10.0,71,0.00,,-RA,0.02,VWS V14.01,2013-11-22 21:30:00,
2013-11-22 15:34:00,34.8,26.0,30.46,NNE,24,2.0,6.0,69,0.00,,,0.02,weatherlink.com 1.10,2013-11-22 21:34:00,
2013-11-22 15:49:00,34.8,26.0,30.46,WNW,292,1.0,7.0,71,0.00,,,0.02,weatherlink.com 1.10,2013-11-22 21:49:00,
2013-11-22 16:00:00,35.0,25.9,30.46,NW,315,2.0,8.0,72,0.00,,-RA,0.02,VWS V14.01,2013-11-22 22:00:00,
2013-11-22 16:04:00,34.1,26.0,30.46,NW,323,1.0,8.0,72,0.00,,,0.02,weatherlink.com 1.10,2013-11-22 22:04:00,
2013-11-22 16:19:00,33.4,25.0,30.46,WNW,302,1.0,6.0,72,0.00,,,0.02,weatherlink.com 1.10,2013-11-22 22:19:00,
2013-11-22 16:30:00,34.0,24.9,30.45,NW,315,2.0,6.0,73,0.00,,-RA,0.02,VWS V14.01,2013-11-22 22:30:00,
2013-11-22 16:34:00,32.7,25.0,30.45,NW,313,0.0,4.0,73,0.00,,,0.02,weatherlink.com 1.10,2013-11-22 22:34:00,
2013-11-22 16:49:00,31.9,25.0,30.45,WNW,298,0.0,2.0,74,0.00,,,0.02,weatherlink.com 1.10,2013-11-22 22:49:00,
2013-11-22 17:00:00,32.0,24.5,30.45,WNW,292,0.0,3.0,76,0.00,,-RA,0.02,VWS V14.01,2013-11-22 23:00:00,
2013-11-22 17:05:00,31.4,24.0,30.45,West,281,1.0,2.0,75,0.00,,,0.02,weatherlink.com 1.10,2013-11-22 23:05:00,
2013-11-22 17:20:00,30.2,25.0,30.45,West,264,1.0,1.0,80,0.00,,,0.02,weatherlink.com 1.10,2013-11-22 23:20:00,
2013-11-22 17:30:00,29.0,25.4,30.45,West,270,0.0,2.0,83,0.00,,-RA,0.02,VWS V14.01,2013-11-22 23:30:00,
2013-11-22 17:35:00,29.4,26.0,30.45,West,269,1.0,2.0,85,0.00,,,0.02,weatherlink.com 1.10,2013-11-22 23:35:00,
2013-11-22 17:50:00,28.9,26.0,30.45,West,264,0.0,1.0,87,0.00,,,0.02,weatherlink.com 1.10,2013-11-22 23:50:00,
2013-11-22 18:00:00,27.0,25.2,30.45,West,270,0.0,2.0,86,0.00,,-RA,0.02,VWS V14.01,2013-11-23 00:00:00,
2013-11-22 18:05:00,28.2,25.0,30.44,West,263,0.0,1.0,88,0.00,,,0.02,weatherlink.com 1.10,2013-11-23 00:05:00,
2013-11-22 18:20:00,27.8,25.0,30.44,WSW,253,0.0,1.0,89,0.00,,,0.02,weatherlink.com 1.10,2013-11-23 00:20:00,
2013-11-22 18:30:00,26.0,24.5,30.44,West,270,0.0,1.0,89,0.00,,-RA,0.02,VWS V14.01,2013-11-23 00:30:00,
2013-11-22 18:35:00,27.1,25.0,30.44,West,269,0.0,1.0,90,0.00,,,0.02,weatherlink.com 1.10,2013-11-23 00:35:00,
2013-11-22 18:50:00,27.3,25.0,30.44,West,275,0.0,4.0,89,0.00,,,0.02,weatherlink.com 1.10,2013-11-23 00:50:00,
2013-11-22 19:00:00,25.0,24.3,30.44,West,270,1.0,3.0,90,0.00,,-RA,0.02,VWS V14.01,2013-11-23 01:00:00,
2013-11-22 19:05:00,27.1,25.0,30.44,West,267,1.0,2.0,90,0.00,,,0.02,weatherlink.com 1.10,2013-11-23 01:05:00,
2013-11-22 19:20:00,26.6,24.0,30.44,WSW,238,0.0,1.0,90,0.00,,,0.02,weatherlink.com 1.10,2013-11-23 01:20:00,
2013-11-22 19:30:00,25.0,24.0,30.45,West,270,0.0,2.0,91,0.00,,-RA,0.02,VWS V14.01,2013-11-23 01:30:00,
2013-11-22 19:35:00,26.4,24.0,30.45,West,277,1.0,2.0,89,0.00,,,0.02,weatherlink.com 1.10,2013-11-23 01:35:00,
2013-11-22 19:50:00,26.7,23.0,30.45,West,259,4.0,5.0,87,0.00,,,0.02,weatherlink.com 1.10,2013-11-23 01:50:00,
2013-11-22 20:00:00,25.0,23.3,30.45,West,270,2.0,5.0,91,0.00,,-RA,0.02,VWS V14.01,2013-11-23 02:00:00,
2013-11-22 20:05:00,26.9,23.0,30.44,WNW,285,2.0,4.0,86,0.00,,,0.02,weatherlink.com 1.10,2013-11-23 02:05:00,
2013-11-22 20:20:00,26.4,23.0,30.44,WNW,286,1.0,3.0,87,0.00,,,0.02,weatherlink.com 1.10,2013-11-23 02:20:00,
2013-11-22 20:30:00,25.0,22.7,30.44,West,270,1.0,4.0,89,0.00,,-RA,0.02,VWS V14.01,2013-11-23 02:30:00,
2013-11-22 20:35:00,25.8,23.0,30.45,West,264,1.0,4.0,87,0.00,,,0.02,weatherlink.com 1.10,2013-11-23 02:35:00,
2013-11-22 20:50:00,24.9,22.0,30.44,West,263,1.0,3.0,88,0.00,,,0.02,weatherlink.com 1.10,2013-11-23 02:50:00,
2013-11-22 21:00:00,24.0,22.0,30.45,West,270,1.0,4.0,90,0.00,,-RA,0.02,VWS V14.01,2013-11-23 03:00:00,
2013-11-22 21:05:00,24.8,22.0,30.45,West,280,3.0,4.0,89,0.00,,,0.02,weatherlink.com 1.10,2013-11-23 03:05:00,
2013-11-22 21:20:00,25.4,22.0,30.45,West,267,3.0,6.0,87,0.00,,,0.02,weatherlink.com 1.10,2013-11-23 03:20:00,
2013-11-22 21:30:00,24.0,21.9,30.45,West,270,3.0,6.0,90,0.00,,-RA,0.02,VWS V14.01,2013-11-23 03:30:00,
2013-11-22 21:35:00,24.8,22.0,30.45,WSW,254,0.0,4.0,87,0.00,,,0.02,weatherlink.com 1.10,2013-11-23 03:35:00,
2013-11-22 21:50:00,24.0,21.0,30.45,West,265,1.0,2.0,89,0.00,,,0.02,weatherlink.com 1.10,2013-11-23 03:50:00,
2013-11-22 22:00:00,23.0,21.0,30.45,West,270,1.0,3.0,89,0.00,,-RA,0.02,VWS V14.01,2013-11-23 04:00:00,
2013-11-22 22:05:00,23.8,21.0,30.45,WNW,287,2.0,4.0,89,0.00,,,0.02,weatherlink.com 1.10,2013-11-23 04:05:00,
2013-11-22 22:20:00,23.9,21.0,30.45,WNW,288,2.0,4.0,88,0.00,,,0.02,weatherlink.com 1.10,2013-11-23 04:20:00,
2013-11-22 22:30:00,22.0,20.4,30.44,West,270,1.0,5.0,90,0.00,,-RA,0.02,VWS V14.01,2013-11-23 04:30:00,
2013-11-22 22:35:00,23.5,21.0,30.45,West,263,0.0,3.0,88,0.00,,,0.02,weatherlink.com 1.10,2013-11-23 04:35:00,
2013-11-22 22:50:00,23.3,20.0,30.45,West,275,0.0,4.0,88,0.00,,,0.02,weatherlink.com 1.10,2013-11-23 04:50:00,
2013-11-22 23:00:00,22.0,20.1,30.45,West,270,1.0,4.0,90,0.00,,-RA,0.02,VWS V14.01,2013-11-23 05:00:00,
2013-11-22 23:05:00,23.0,20.0,30.45,West,277,1.0,4.0,88,0.00,,,0.02,weatherlink.com 1.10,2013-11-23 05:05:00,
2013-11-22 23:20:00,22.6,20.0,30.45,West,269,2.0,3.0,88,0.00,,,0.02,weatherlink.com 1.10,2013-11-23 05:20:00,
2013-11-22 23:30:00,21.0,19.2,30.44,West,270,1.0,4.0,90,0.00,,-RA,0.02,VWS V14.01,2013-11-23 05:30:00,
2013-11-22 23:35:00,22.0,19.0,30.44,WSW,242,0.0,2.0,88,0.00,,,0.02,weatherlink.com 1.10,2013-11-23 05:35:00,
2013-11-22 23:50:00,21.8,19.0,30.44,West,281,1.0,1.0,88,0.00,,,0.02,weatherlink.com 1.10,2013-11-23 05:50:00,